軌道要素
Epoch 2005 Mar. 11.0 TT = JDT 2453440.5
T 2005 Mar. 10.54631 TT MPC
q 0.0491710 (2000.0) P Q
n 0.17406204 Peri. 22.27621 -0.20088010 -0.87458257
a 3.1768741 Node 81.62555 +0.81802940 -0.39760714
e 0.9845222 Incl. 26.49143 +0.53895740 +0.27751377
P 5.66
|